Temperature
16 16 16 16 17 17 17 17 16 16 16 16 16 16 16 16 16 16 16 16 16 16 16 16 16 16 16 16 16 16 16 16 16 15 15 15 15 15 15 15 14 15 15
17 16 16 16 17 17 17 17 16 16 16 16 16 16 16 16 16 16 16 16 16 16 16 16 16 16 16 16 16 16 16 16 16 16 16 15 15 15 15 15 15 15 15
16 16 16 16 17 17 17 17 16 16 16 16 16 16 16 16 16 16 16 16 16 16 16 16 16 16 16 16 16 16 16 16 16 16 15 14 15 15 15 15 15 15 15
16 16 16 16 16 17 17 16 16 16 16 16 16 16 16 16 16 16 16 16 16 16 17 17 16 16 16 16 16 16 16 16 16 15 14 14 14 15 15 15 15 15 15
16 16 16 16 16 17 17 16 16 16 16 16 16 16 16 16 16 16 16 16 16 17 17 17 16 16 16 16 16 16 16 16 16 15 14 14 14 15 15 15 15 15 15
16 15 16 16 16 16 16 16 16 16 16 16 16 16 16 16 16 16 17 17 17 17 17 16 16 16 16 16 16 16 16 16 15 14 14 14 14 15 15 15 15 15 15
15 15 16 16 16 16 16 16 16 16 16 16 16 16 16 16 16 17 17 17 17 17 16 16 16 16 16 16 16 16 16 16 15 14 14 14 14 15 15 15 15 14 14
15 15 16 16 16 16 16 16 16 16 16 16 16 16 16 17 17 17 17 16 16 16 16 16 16 16 16 16 16 16 16 15 15 14 14 14 14 14 14 14 14 14 14
15 15 15 15 16 16 16 16 16 16 16 16 16 16 16 17 17 16 16 16 16 16 16 16 16 16 16 16 16 16 15 15 14 14 14 14 14 14 14 14 14 14 14
15 15 15 15 15 15 16 16 16 16 16 16 16 16 16 16 16 16 16 16 16 16 16 16 16 16 16 16 16 15 15 15 14 14 14 14 14 14 14 14 13 13 13
15 15 15 15 15 15 15 15 15 15 16 16 16 16 16 16 16 16 16 16 16 16 16 16 16 16 16 15 15 15 15 14 13 14 13 14 14 14 13 13 13 13 13
15 15 15 15 15 15 15 15 15 15 15 15 15 16 16 15 15 16 16 16 16 16 16 16 16 15 15 15 15 15 14 14 13 13 13 14 14 14 13 13 13 13 13
15 15 15 15 15 15 15 15 15 15 15 15 15 15 15 15 16 16 16 16 16 16 15 15 15 15 14 14 14 14 14 13 13 13 13 14 14 13 13 13 13 13 13
14 15 15 15 15 15 15 15 15 15 15 15 15 15 15 15 15 15 15 15 15 15 15 15 15 14 14 14 14 13 13 13 13 13 13 14 13 13 13 13 13 13 12
14 14 15 15 15 15 15 15 15 15 15 15 16 15 15 15 15 15 15 15 15 15 15 15 14 14 14 14 13 13 13 13 13 13 13 13 13 13 13 13 13 12 12
14 14 14 14 15 15 15 15 15 15 15 15 16 16 15 15 15 15 15 15 15 15 15 15 14 14 14 13 13 13 13 13 13 13 13 13 13 13 13 13 12 12 12
14 14 14 14 14 15 15 15 15 15 15 15 15 15 15 15 15 15 15 15 15 15 14 14 14 14 13 13 13 13 13 13 13 13 13 13 13 13 13 12 12 12 12
14 14 14 14 14 14 14 15 15 15 15 15 15 15 15 15 15 15 15 15 15 14 14 14 14 14 13 13 13 13 13 13 13 13 13 13 13 12 12 12 12 12 12
14 14 14 14 14 14 14 14 14 15 15 15 15 15 15 15 15 15 15 15 14 14 14 14 14 13 13 13 13 13 13 13 13 13 13 13 12 12 12 12 12 11 11
14 14 14 14 14 14 14 14 14 14 14 15 15 15 15 15 15 14 14 14 14 14 14 14 13 13 13 13 13 12 12 12 13 13 13 13 12 12 12 11 11 11 11
14 14 14 14 14 14 14 14 14 14 14 14 15 15 14 15 15 14 14 14 14 14 14 13 13 13 13 13 12 12 12 12 13 13 13 12 12 12 11 11 11 10 10
13 13 13 14 14 13 13 14 14 14 14 14 14 14 14 14 14 14 14 14 14 13 13 13 13 13 13 13 12 12 12 12 12 12 12 12 12 11 11 11 10 10 10
13 13 13 13 14 13 13 13 13 13 13 14 14 14 14 14 14 14 14 14 13 13 13 13 13 13 13 12 12 12 12 12 11 11 12 11 11 11 10 10 10 9 9
13 13 13 13 13 13 13 13 13 13 13 13 13 14 14 14 14 14 14 13 13 13 13 13 13 13 12 12 12 12 11 11 11 10 10 11 10 10 10 9 9 9 9
13 13 13 13 13 13 13 13 13 13 13 13 13 13 13 13 13 13 13 13 13 13 13 13 13 12 12 12 12 12 11 11 10 10 10 10 10 9 9 9 8 8 8
12 13 13 13 13 13 13 13 13 12 12 12 12 13 13 13 13 13 13 13 13 13 13 12 12 12 12 12 11 11 11 11 10 10 9 9 9 9 9 8 8 8 7
Wind_Speed
14 19 22 20 19 17 16 15 15 15 16 17 17 17 17 18 18 18 18 18 18 18 17 17 17 17 17 17 17 17 17 17 17 17 17 16 16 16 15 13 13 16 16
17 21 23 21 19 18 16 15 15 15 16 17 18 18 18 18 18 18 18 18 18 18 17 17 17 16 16 16 16 16 16 15 15 13 12 15 16 15 15 15 15 14 15
19 22 22 21 19 18 17 16 15 15 16 17 18 18 18 18 18 18 18 18 18 17 17 17 16 15 15 15 15 15 14 14 12 8 7 12 14 14 14 14 14 14 14
19 21 21 21 20 18 17 16 16 15 16 16 17 18 18 18 18 18 18 18 17 17 16 16 15 14 14 14 14 14 13 12 9 3 9 11 12 13 13 13 13 13 13
18 19 20 21 20 19 17 17 16 16 16 16 17 18 18 18 18 18 18 17 17 16 16 15 14 14 13 13 13 12 12 10 6 7 10 10 11 12 12 12 12 12 12
18 19 21 21 20 18 17 16 16 16 16 16 16 17 18 18 18 18 17 17 16 16 15 14 13 13 12 12 12 11 10 7 5 9 8 8 9 10 10 10 10 11 11
17 18 21 20 20 19 17 16 16 15 15 16 16 17 17 17 17 17 17 16 16 15 14 13 12 12 11 11 10 10 8 4 6 7 7 8 9 8 8 8 9 9 9
17 17 20 20 19 18 17 16 15 15 15 16 16 16 16 17 17 17 16 15 15 14 13 12 11 11 10 10 9 8 6 3 5 6 6 7 7 6 7 7 7 7 7
16 16 17 19 18 17 16 15 15 14 14 15 15 15 16 16 16 16 15 15 14 13 12 11 11 10 9 8 8 6 5 2 3 5 5 5 5 4 5 5 5 5 5
15 15 15 17 17 17 16 15 15 14 14 14 14 14 15 14 15 14 14 14 13 12 11 10 10 9 8 7 7 6 5 3 3 3 3 4 3 2 2 3 3 3 3
14 14 14 15 15 15 15 15 15 14 14 14 14 15 15 13 13 13 12 13 12 11 10 9 8 8 7 7 6 5 5 2 2 2 2 3 0 0 0 1 1 1 1
15 14 13 14 14 14 13 14 13 13 14 13 13 14 12 11 10 10 12 11 11 10 9 8 8 7 7 6 6 6 3 2 1 1 2 1 2 2 1 1 1 1 1
15 14 13 13 13 13 11 11 10 10 11 11 13 13 11 10 9 9 10 10 10 10 9 8 8 7 6 4 4 4 2 2 2 1 2 1 3 4 3 3 3 3 3
13 15 14 13 13 13 11 10 10 9 9 9 11 12 10 8 8 8 8 9 9 8 8 8 6 6 6 6 5 4 4 3 3 2 2 2 4 5 5 4 4 4 4
13 13 14 13 13 12 11 9 9 9 9 10 10 11 11 8 7 8 7 8 8 7 8 7 7 6 6 5 5 5 5 5 4 4 3 3 4 5 6 6 6 5 5
14 14 12 14 13 12 10 9 9 9 10 10 10 11 11 9 8 7 7 7 7 8 7 7 7 6 5 5 5 5 5 5 5 5 4 4 4 5 5 5 5 5 5
12 12 13 12 12 13 12 11 9 9 10 9 10 12 12 11 10 8 7 7 7 8 8 7 7 6 5 5 6 5 5 5 5 5 5 4 4 3 4 4 5 5 4
9 10 11 10 11 12 11 11 9 10 10 9 10 11 12 12 11 9 7 7 8 7 7 6 6 6 6 6 5 4 4 4 5 5 5 4 4 3 2 2 3 3 3
8 8 8 9 11 11 10 9 9 9 9 9 9 10 11 12 12 10 7 7 8 7 7 6 7 6 6 5 5 4 4 4 4 4 5 4 3 3 2 1 0 1 2
6 5 6 6 8 9 8 7 7 7 8 8 8 10 12 11 12 10 8 9 8 7 7 7 8 6 6 5 4 4 4 4 3 3 3 3 2 2 2 2 1 1 2
5 5 6 7 7 6 6 7 7 7 7 7 7 10 12 12 12 11 8 8 8 8 9 9 8 8 6 5 4 4 4 4 4 3 2 2 2 1 1 1 0 1 1
5 6 6 7 7 8 7 7 6 6 6 7 7 9 12 12 12 10 10 8 8 8 9 9 8 6 5 5 5 4 4 4 4 2 2 2 1 1 1 1 0 1 1
4 5 5 6 7 8 8 6 5 5 4 6 8 8 9 11 12 11 11 9 8 8 8 9 9 9 7 6 6 5 4 5 2 3 3 3 2 2 1 1 0 1 1
3 3 4 5 6 7 8 8 9 8 8 8 8 7 8 10 10 10 10 10 9 8 8 8 8 8 8 6 5 6 6 4 4 3 3 4 3 3 2 1 1 0 1
1 2 3 4 5 7 7 9 10 9 8 6 6 8 8 7 8 9 10 9 9 8 9 9 8 9 7 7 6 5 5 5 6 6 5 4 4 4 3 2 2 1 1
1 1 2 3 4 6 7 8 10 11 10 9 9 8 7 6 6 9 9 9 8 8 9 9 9 9 8 8 7 6 5 4 5 6 7 5 4 3 3 3 3 2 1
Wind_Direction
162 157 153 152 150 148 146 145 145 146 146 146 143 140 137 134 130 127 127 124 121 119 115 111 106 102 98 93 90 88 85 83 80 77 76 74 74 73 68 61 69 71 65
157 155 151 152 152 149 148 146 145 146 146 146 144 142 139 135 131 129 128 126 122 120 116 112 108 104 100 97 94 92 89 87 84 83 88 85 75 72 69 63 61 68 65
154 153 153 153 152 149 147 146 145 146 147 147 146 143 140 137 134 131 129 126 123 120 116 113 110 106 104 101 98 97 94 90 87 87 98 88 81 74 73 71 69 68 66
154 154 156 152 151 149 148 148 147 147 148 147 145 143 141 138 135 133 130 127 124 121 118 115 113 110 108 107 104 100 96 93 87 83 84 81 81 76 75 72 70 68 67
154 155 151 153 151 150 149 150 149 149 149 146 145 143 141 139 137 135 130 127 125 123 121 119 116 113 110 110 109 104 99 96 96 86 83 81 80 76 75 72 70 69 67
155 155 152 154 152 150 150 152 152 153 152 149 147 143 141 140 139 135 132 130 128 127 125 123 118 114 112 112 112 109 106 108 113 86 84 82 81 78 76 73 71 68 65
156 155 155 156 153 152 153 154 154 155 154 152 149 146 144 142 140 137 135 134 133 131 129 127 123 119 116 114 113 113 108 96 91 90 85 82 79 76 75 74 71 68 65
157 156 156 157 155 154 155 156 156 153 153 153 152 149 147 145 143 141 139 139 138 137 134 130 128 125 122 119 118 118 116 119 105 93 87 85 77 76 76 74 72 68 65
159 159 159 162 160 157 156 158 157 155 153 152 152 150 148 147 146 145 145 146 144 142 138 135 132 129 126 123 123 123 122 133 108 95 91 88 82 80 79 77 74 68 64
164 165 163 165 166 165 163 159 157 155 153 151 148 145 143 146 148 149 152 150 149 146 143 140 138 134 129 128 129 133 147 196 115 114 104 95 88 84 85 87 81 74 68
170 171 169 169 170 168 166 160 160 156 153 151 150 146 152 159 157 159 156 150 151 151 150 148 145 141 140 139 140 154 187 179 130 114 107 91 85 41 118 90 72 79 67
177 175 175 173 172 170 166 167 169 167 165 170 165 165 170 167 164 162 150 156 156 156 157 155 153 160 180 169 162 187 197 188 188 166 129 123 272 265 250 248 269 267 258
182 177 179 177 174 173 171 172 172 171 173 177 174 175 173 168 164 167 167 167 170 172 175 166 179 189 195 187 193 201 206 225 230 211 174 199 274 271 261 255 260 266 260
189 184 180 181 179 178 176 177 176 175 177 179 180 181 178 176 177 177 181 180 182 187 187 191 199 194 199 199 206 210 211 227 237 243 220 230 265 270 266 262 262 261 259
190 190 184 182 185 181 178 180 183 183 185 184 183 188 188 186 186 184 188 188 194 195 195 199 204 201 206 209 214 225 232 237 244 248 236 214 249 265 263 264 263 262 261
191 191 187 187 188 185 183 184 187 188 187 187 188 193 195 197 195 194 196 198 201 203 205 207 210 209 214 216 222 231 241 247 253 258 265 241 235 251 260 261 263 264 266
193 189 187 188 189 191 191 190 189 191 191 193 194 197 199 200 199 201 204 205 207 208 209 213 213 218 219 221 228 236 245 254 262 264 264 270 262 241 242 256 264 265 265
197 190 188 188 191 197 197 193 192 193 194 196 197 198 202 204 204 205 208 211 210 210 211 212 213 216 217 222 229 232 240 248 262 271 269 266 268 268 240 235 270 271 271
198 196 189 194 196 199 200 200 196 195 197 198 199 202 204 207 207 209 212 212 208 210 214 212 215 217 218 221 231 238 246 251 260 263 265 266 265 267 265 173 196 312 287
195 193 192 196 202 201 197 199 197 197 200 200 203 207 205 206 207 210 212 213 208 209 214 213 213 214 222 220 225 239 249 254 259 260 260 256 253 246 244 238 216 110 59
187 188 192 193 198 202 200 202 202 203 203 204 207 211 208 206 205 207 210 211 210 215 216 215 214 214 214 207 215 234 237 240 244 244 239 228 205 197 189 210 254 262 70
192 194 202 200 199 204 209 208 212 208 209 210 210 213 210 207 205 205 207 208 210 215 216 213 210 213 207 199 213 227 239 223 208 208 209 210 215 186 156 132 120 333 300
197 195 210 210 212 215 215 209 207 206 209 211 214 215 214 210 207 205 207 209 210 213 216 212 210 210 208 207 219 226 237 240 206 191 200 205 205 204 190 168 114 358 339
211 200 210 215 218 218 213 213 211 214 216 219 216 215 211 207 209 208 209 210 209 210 213 210 208 211 212 208 213 230 247 265 239 226 201 201 206 216 217 202 202 203 313
211 210 216 226 223 221 215 218 218 224 224 220 218 219 214 206 208 207 207 209 209 207 208 205 202 205 211 213 209 210 222 234 242 248 246 218 214 217 217 223 214 211 240
352 284 246 241 240 231 224 229 224 222 221 217 219 222 221 215 212 209 205 205 206 204 204 203 201 202 204 211 212 213 212 218 221 230 243 245 240 215 209 218 216 205 204
Height
1514 1517 1520 1523 1526 1528 1529 1531 1532 1534 1535 1537 1539 1540 1542 1543 1544 1546 1546 1547 1548 1549 1549 1550 1550 1551 1551 1551 1551 1552 1552 1552 1552 1552 1552 1551 1551 1551 1551 1550 1550 1549 1548
1513 1517 1520 1523 1525 1527 1529 1531 1532 1534 1536 1538 1539 1541 1543 1544 1546 1547 1548 1549 1550 1550 1551 1552 1552 1553 1553 1553 1554 1554 1554 1554 1554 1554 1554 1554 1554 1553 1553 1552 1552 1551 1550
1513 1516 1519 1523 1525 1527 1529 1531 1533 1534 1536 1538 1540 1542 1544 1545 1547 1548 1549 1550 1551 1552 1553 1553 1554 1555 1555 1555 1556 1556 1556 1556 1556 1556 1556 1557 1556 1555 1555 1554 1553 1553 1552
1513 1516 1519 1522 1525 1527 1529 1531 1533 1535 1537 1539 1541 1543 1544 1546 1548 1549 1551 1552 1553 1554 1554 1555 1556 1556 1557 1557 1558 1558 1558 1558 1558 1558 1559 1559 1558 1557 1556 1556 1555 1554 1554
1514 1517 1519 1522 1525 1527 1530 1532 1533 1535 1537 1539 1542 1543 1545 1547 1549 1550 1552 1553 1554 1555 1556 1557 1557 1558 1559 1559 1559 1560 1560 1560 1560 1560 1560 1560 1559 1559 1558 1557 1556 1556 1555
1514 1517 1520 1523 1525 1528 1530 1532 1534 1536 1538 1540 1542 1544 1546 1548 1550 1551 1553 1554 1555 1556 1557 1558 1559 1560 1560 1561 1561 1561 1561 1561 1561 1562 1561 1561 1561 1560 1559 1558 1558 1557 1556
1514 1517 1520 1523 1525 1528 1530 1532 1534 1537 1539 1541 1543 1545 1547 1549 1550 1552 1554 1555 1556 1557 1558 1559 1560 1561 1561 1562 1562 1562 1562 1562 1563 1563 1562 1562 1561 1561 1560 1559 1558 1558 1557
1514 1517 1520 1523 1526 1528 1531 1533 1535 1537 1539 1541 1543 1545 1547 1549 1551 1553 1554 1556 1557 1558 1559 1560 1561 1562 1562 1563 1563 1563 1563 1563 1563 1563 1563 1563 1562 1561 1561 1560 1559 1558 1557
1514 1517 1520 1523 1526 1528 1531 1533 1535 1538 1540 1542 1544 1546 1548 1550 1552 1553 1555 1557 1558 1559 1560 1561 1562 1563 1563 1564 1564 1564 1564 1564 1565 1564 1564 1563 1562 1562 1561 1560 1559 1558 1557
1514 1517 1519 1522 1525 1528 1531 1533 1536 1538 1540 1542 1544 1546 1548 1550 1552 1554 1556 1557 1558 1559 1561 1561 1562 1563 1564 1564 1564 1564 1564 1564 1565 1564 1564 1563 1562 1562 1561 1560 1559 1558 1557
1513 1516 1519 1522 1525 1528 1530 1533 1535 1538 1540 1542 1544 1546 1548 1550 1552 1554 1556 1557 1558 1560 1561 1562 1563 1563 1564 1564 1564 1564 1564 1565 1565 1565 1564 1563 1562 1562 1561 1560 1559 1558 1557
1510 1514 1517 1520 1523 1527 1529 1532 1535 1537 1539 1542 1544 1546 1548 1550 1552 1554 1555 1557 1558 1559 1560 1561 1562 1563 1564 1564 1564 1564 1565 1564 1565 1564 1563 1562 1562 1561 1560 1560 1559 1558 1557
1508 1512 1515 1519 1522 1525 1528 1531 1534 1536 1538 1541 1543 1545 1547 1549 1551 1553 1554 1556 1557 1559 1560 1561 1561 1562 1563 1563 1563 1564 1564 1564 1564 1563 1563 1561 1561 1560 1559 1559 1558 1557 1556
1506 1510 1513 1517 1520 1523 1526 1529 1532 1534 1537 1539 1541 1543 1546 1547 1550 1552 1553 1555 1556 1558 1559 1560 1560 1561 1562 1562 1563 1563 1563 1563 1563 1562 1561 1560 1559 1559 1558 1557 1557 1556 1555
1504 1507 1511 1514 1518 1521 1524 1527 1530 1532 1535 1537 1539 1542 1544 1546 1548 1550 1552 1553 1555 1556 1557 1558 1559 1560 1560 1561 1561 1561 1562 1562 1561 1560 1560 1558 1558 1557 1556 1556 1555 1554 1553
1501 1505 1509 1512 1515 1519 1522 1525 1528 1531 1533 1535 1537 1540 1542 1544 1546 1548 1550 1551 1553 1554 1555 1556 1557 1558 1559 1559 1559 1560 1560 1560 1559 1559 1558 1557 1556 1555 1554 1553 1553 1552 1551
1500 1502 1506 1509 1513 1517 1520 1523 1526 1529 1531 1533 1535 1537 1539 1542 1544 1546 1548 1549 1551 1552 1553 1554 1555 1556 1556 1557 1557 1557 1557 1557 1557 1556 1555 1554 1554 1553 1552 1551 1550 1550 1549
1498 1500 1503 1507 1510 1514 1518 1521 1523 1526 1529 1531 1533 1535 1537 1539 1541 1543 1545 1546 1548 1549 1550 1551 1552 1553 1554 1554 1555 1555 1555 1554 1554 1553 1553 1552 1551 1550 1549 1548 1548 1547 1547
1495 1498 1500 1504 1507 1511 1514 1518 1520 1523 1525 1528 1530 1532 1534 1536 1538 1540 1542 1543 1545 1546 1547 1548 1549 1550 1551 1551 1552 1552 1552 1551 1551 1550 1549 1548 1548 1547 1546 1546 1545 1545 1544
1493 1495 1498 1501 1505 1508 1510 1514 1517 1519 1521 1524 1526 1528 1530 1533 1535 1537 1538 1540 1541 1542 1544 1545 1546 1546 1547 1548 1548 1548 1548 1548 1547 1546 1546 1545 1544 1544 1543 1543 1543 1542 1542
1491 1494 1496 1499 1502 1505 1507 1510 1513 1515 1517 1520 1522 1524 1526 1528 1530 1532 1534 1535 1537 1538 1540 1541 1542 1543 1543 1544 1545 1545 1544 1544 1543 1543 1542 1542 1541 1540 1540 1540 1540 1539 1539
1489 1491 1494 1496 1499 1501 1504 1507 1509 1511 1514 1516 1518 1520 1522 1524 1526 1527 1529 1531 1533 1534 1535 1536 1537 1538 1539 1540 1541 1542 1542 1542 1539 1539 1538 1538 1538 1537 1537 1537 1536 1536 1536
1486 1488 1491 1493 1495 1497 1500 1502 1505 1507 1509 1511 1513 1515 1517 1519 1520 1522 1524 1526 1528 1529 1530 1531 1532 1534 1534 1536 1537 1539 1539 1538 1537 1535 1534 1534 1534 1534 1534 1534 1533 1533 1533
1484 1486 1487 1489 1492 1494 1496 1497 1500 1501 1503 1506 1509 1510 1511 1513 1515 1517 1519 1520 1522 1523 1525 1526 1528 1529 1530 1531 1532 1532 1534 1534 1534 1533 1531 1530 1530 1530 1530 1530 1530 1529 1529
1482 1483 1484 1486 1488 1490 1491 1493 1494 1496 1498 1501 1503 1504 1505 1507 1509 1511 1513 1515 1516 1518 1519 1521 1522 1523 1525 1526 1527 1527 1528 1528 1529 1530 1529 1528 1527 1526 1526 1526 1525 1525 1525
1480 1480 1481 1483 1485 1486 1487 1489 1489 1491 1493 1495 1497 1498 1500 1501 1502 1504 1507 1508 1510 1512 1514 1515 1517 1518 1519 1521 1522 1522 1523 1523 1524 1524 1524 1523 1523 1522 1522 1521 1521 1521 1521